Regional Weather Roundup
Issued by NWS

Home | Current Version | Previous Version | Text Only | Print | Product List | Glossary Off
Versions: 1 2 3 4 5 6 7 8 9 10 11 12 13 14 15 16 17 18 19 20 21 22 23 24 25 26 27 28 29 30 31 32 33 34 35 36 37 38 39 40 41 42 43 44 45 46 47 48 49 50

000
ASUS45 KSLC 050610
RWRUT

UTAH REGIONAL WEATHER ROUNDUP
NATIONAL WEATHER SERVICE SALT LAKE CITY UT
1200 AM MDT TUE MAY 05 2015

UTZ001>011-023>025-050700-

NORTHERN UTAH

CITY           SKY/WX    TMP DP  RH WIND       PRES   REMARKS
BRIGHAM CITY   MOCLDY    57  46  65 CALM      29.88S
HILL AFB       MOCLDY    57  44  62 E16       29.89S
LOGAN          PTCLDY    54  46  74 VRB5      29.90S
OGDEN          MOCLDY    57  42  57 SW3       29.87F
PROVO AIRPORT  MOCLDY    55  48  76 E6        29.92S
SALT LAKE CITY CLOUDY    62  44  51 VRB6      29.88R
VERNAL         CLOUDY    59  38  45 N6        29.93F
WENDOVER       CLOUDY    63  41  45 S5        29.90F
HEBER CITY     MOCLDY    46  41  81 CALM      29.96S
WEST JORDAN    MOCLDY    57  46  67 S8        29.90S

$$

UTZ012>022-026-027-050700-

SOUTHERN/CENTRAL UTAH

CITY           SKY/WX    TMP DP  RH WIND       PRES   REMARKS
BLANDING       CLOUDY    52  49  92 NW3       30.04F
BRYCE CANYON   LGT RAIN  44  41  89 NW5       30.03F
CEDAR CITY     CLOUDY    51  46  83 SE8       29.95S
DELTA          MOCLDY    53  46  77 E7        29.90F
HANKSVILLE     CLOUDY    59  50  72 CALM      29.91S
MILFORD        CLOUDY    56  46  69 S5        29.92F
MOAB/CYNLANDS  CLOUDY    59  50  72 SW3       29.88S
PRICE          CLOUDY    56  42  59 CALM      29.97R
ST GEORGE      MOCLDY    61  52  72 E3        29.89F
KANAB          CLOUDY    52  46  82 CALM      29.98F

$$

REGIONAL REPORTS     COLORADO/ARIZONA

CITY           SKY/WX    TMP DP  RH WIND       PRES   REMARKS
CRAIG, CO      PTCLDY    48  38  68 E12       29.99F
GRAND JUNCTION CLOUDY    56  45  66 E12       29.91F
RIFLE          MOCLDY    49  42  77 E3        29.96S
MONTROSE       MOCLDY    50  44  80 SE7       29.99S
CORTEZ         CLOUDY    50  46  86 SW3       29.99S
PAGE, AZ       CLOUDY    59  49  69 W8        29.90F
GRAND CANYON   CLOUDY    45  41  86 CALM      30.01F
KINGMAN        LGT RAIN  57  50  77 E10       29.93R
FLAGSTAFF      CLOUDY    41  39  93 CALM      30.03R

$$

REGIONAL REPORTS    NEVADA/IDAHO/WYOMING

CITY           SKY/WX    TMP DP  RH WIND       PRES   REMARKS
LAS VEGAS, NV  CLOUDY    71  43  36 S10       29.80R
ELY            MOCLDY    43  34  70 S8        29.98R
ELKO           MOCLDY    54  38  54 NW3       29.93F
POCATELLO, ID  PTCLDY    58  42  55 CALM      29.90S
BURLEY         MOCLDY    54  39  57 SW9       29.84F
EVANSTON, WY   PTCLDY    45  37  73 E9        30.01F
ROCK SPRINGS   PTCLDY    47  40  76 NE8       30.02F
KEMMERER       CLOUDY    45  37  76 CALM      30.05R

$$



USA.gov is the U.S. government's official web portal to all federal, state and local government web resources and services.